N6ZQK Weather Reports


Display with metric or nautical units.
time (UTC)temp
F
wind
direction
speed
MPH
gust
MPH
rain 1hr
in
rain 24hr
in
rain mn
in
humidity
%
barometer
mb
20260902214803 66 214 4.0 13.0 0.00 0.00 0.00 60 1015.3
20260902214203 66 234 3.0 14.0 0.00 0.00 0.00 61 1015.2
20260902213817 66 237 3.0 14.0 0.00 0.00 0.00 60 1015.4
20260902213003 65 242 4.0 16.0 0.00 0.00 0.00 60 1015.4
20260902212403 65 219 2.0 14.0 0.00 0.00 0.00 61 1015.4
20260902211803 65 208 4.0 13.0 0.00 0.00 0.00 59 1015.4
20260902211418 65 206 5.0 13.0 0.00 0.00 0.00 59 1015.4
20260902210603 65 216 5.0 12.0 0.00 0.00 0.00 60 1015.6
20260902210003 65 231 5.0 15.0 0.00 0.00 0.00 61 1015.4
20260902205403 65 233 4.0 15.0 0.00 0.00 0.00 60 1015.4
20260902204803 65 219 4.0 15.0 0.00 0.00 0.00 59 1015.4
20260902204203 65 228 4.0 15.0 0.00 0.00 0.00 58 1015.4
20260902203603 66 234 3.0 12.0 0.00 0.00 0.00 57 1015.4
20260902203003 65 210 2.0 14.0 0.00 0.00 0.00 58 1015.3
20260902202403 65 212 3.0 14.0 0.00 0.00 0.00 60 1015.4
20260902201804 64 195 2.0 10.0 0.00 0.00 0.00 60 1015.7
20260902201203 64 171 2.0 14.0 0.00 0.00 0.00 60 1015.8
20260902200817 64 199 2.0 14.0 0.00 0.00 0.00 59 1015.8
20260902200003 64 194 3.0 9.0 0.00 0.00 0.00 61 1015.9
20260902195403 64 174 2.0 10.0 0.00 0.00 0.00 59 1015.8
20260902194803 64 192 2.0 10.0 0.00 0.00 0.00 59 1015.7
20260902194203 63 187 2.0 10.0 0.00 0.00 0.00 59 1016.1
20260902193603 62 187 3.0 10.0 0.00 0.00 0.00 59 1016.3
20260902193003 62 193 2.0 10.0 0.00 0.00 0.00 62 1016.3
20260902192403 62 233 1.0 4.0 0.00 0.00 0.00 61 1016.6
20260902191803 62 198 2.0 7.0 0.00 0.00 0.00 60 1016.7
20260902191203 62 216 2.0 9.0 0.00 0.00 0.00 61 1016.6
20260902190819 62 198 2.0 9.0 0.00 0.00 0.00 61 1016.6
20260902190003 61 179 4.0 10.0 0.00 0.00 0.00 61 1016.8
20260902185403 61 223 4.0 10.0 0.00 0.00 0.00 58 1016.8
20260902184803 61 221 3.0 7.0 0.00 0.00 0.00 60 1016.7
20260902184203 61 178 3.0 7.0 0.00 0.00 0.00 60 1016.6
20260902183603 61 190 3.0 7.0 0.00 0.00 0.00 61 1016.6
20260902183003 61 217 2.0 9.0 0.00 0.00 0.00 63 1016.6
20260902182403 61 169 2.0 7.0 0.00 0.00 0.00 63 1016.6
20260902181803 61 183 3.0 8.0 0.00 0.00 0.00 62 1016.5
20260902181203 61 190 4.0 10.0 0.00 0.00 0.00 63 1016.6
20260902180603 61 201 3.0 10.0 0.00 0.00 0.00 63 1016.6
20260902180218 60 223 2.0 8.0 0.00 0.00 0.00 64 1016.5
20260902175403 60 210 3.0 9.0 0.00 0.00 0.00 65 1016.8
20260902175017 60 199 3.0 9.0 0.00 0.00 0.00 66 1016.8
20260902174203 59 185 3.0 9.0 0.00 0.00 0.00 66 1016.7
20260902173603 59 200 1.0 6.0 0.00 0.00 0.00 66 1016.7
20260902173218 59 188 2.0 7.0 0.00 0.00 0.00 65 1016.7
20260902172403 59 192 2.0 7.0 0.00 0.00 0.00 66 1016.4
20260902171803 59 197 1.0 6.0 0.00 0.00 0.00 66 1016.5
20260902171203 59 202 2.0 8.0 0.00 0.00 0.00 66 1016.5
20260902170603 58 217 2.0 8.0 0.00 0.00 0.00 68 1016.7
20260902170003 58 205 1.0 6.0 0.00 0.00 0.00 68 1016.4
20260902165403 58 169 2.0 6.0 0.00 0.00 0.00 68 1016.3
20260902164803 57 157 1.0 7.0 0.00 0.00 0.00 69 1016.4
20260902164203 57 144 2.0 7.0 0.00 0.00 0.00 70 1016.3
20260902163603 57 129 1.0 6.0 0.00 0.00 0.00 70 1016.3
20260902163003 57 127 0.0 2.0 0.00 0.00 0.00 72 1016.3
20260902162617 56 127 1.0 6.0 0.00 0.00 0.00 71 1016.3
20260902161803 56 127 2.0 6.0 0.00 0.00 0.00 72 1016.4
20260902161418 56 127 2.0 6.0 0.00 0.00 0.00 74 1016.4
20260902160817 55 127 2.0 6.0 0.00 0.00 0.00 74 1016.6
20260902160005 55 127 1.0 6.0 0.00 0.00 0.00 74 1016.2
20260902155403 54 126 2.0 6.0 0.00 0.00 0.00 76 1016.4
20260902154804 54 126 2.0 6.0 0.00 0.00 0.00 77 1016.3
20260902154203 54 126 2.0 5.0 0.00 0.00 0.00 78 1016.3
20260902153603 53 126 2.0 6.0 0.00 0.00 0.00 78 1016.3
20260902153003 53 127 2.0 7.0 0.00 0.00 0.00 79 1016.3
20260902152403 53 125 3.0 7.0 0.00 0.00 0.00 79 1016.2
20260902151803 53 125 3.0 7.0 0.00 0.00 0.00 80 1016.2
20260902151203 53 126 2.0 7.0 0.00 0.00 0.00 80 1016.2
20260902150603 52 128 2.0 6.0 0.00 0.00 0.00 80 1016.4
20260902150003 52 130 3.0 6.0 0.00 0.00 0.00 81 1016.0
20260902145403 52 133 3.0 7.0 0.00 0.00 0.00 81 1015.9
20260902144803 52 138 3.0 9.0 0.00 0.00 0.00 81 1016.0
20260902144203 52 141 3.0 9.0 0.00 0.00 0.00 81 1015.9
20260902143603 51 142 2.0 7.0 0.00 0.00 0.00 81 1015.9
20260902143003 51 143 2.0 5.0 0.00 0.00 0.00 83 1016.1
20260902142403 51 143 1.0 5.0 0.00 0.00 0.00 83 1016.1
20260902141803 51 143 1.0 5.0 0.00 0.00 0.00 84 1016.1
20260902141203 50 143 1.0 4.0 0.00 0.00 0.00 84 1016.1
20260902140603 50 143 2.0 5.0 0.00 0.00 0.00 84 1016.1
20260902140003 50 143 1.0 5.0 0.00 0.00 0.00 85 1015.6
20260902135618 50 143 1.0 5.0 0.00 0.00 0.00 85 1015.6
20260902134803 50 143 2.0 5.0 0.00 0.00 0.00 85 1015.6
20260902134203 50 145 2.0 7.0 0.00 0.00 0.00 85 1015.5
20260902133603 50 148 2.0 7.0 0.00 0.00 0.00 85 1015.4
20260902133003 50 148 2.0 6.0 0.00 0.00 0.00 85 1015.2
20260902132618 50 148 2.0 6.0 0.00 0.00 0.00 84 1015.2
20260902132017 50 148 2.0 6.0 0.00 0.00 0.00 84 1015.2
20260902131203 51 148 1.0 5.0 0.00 0.00 0.00 84 1015.1
20260902130604 51 148 1.0 5.0 0.00 0.00 0.00 84 1015.0
20260902130003 51 148 2.0 7.0 0.00 0.00 0.00 84 1014.7
20260902125617 51 148 2.0 7.0 0.00 0.00 0.00 84 1014.7
20260902124803 51 148 2.0 5.0 0.00 0.00 0.00 84 1014.8
20260902124203 51 148 2.0 5.0 0.00 0.00 0.00 84 1014.9
20260902123818 51 148 2.0 6.0 0.00 0.00 0.00 84 1014.8
20260902123003 51 147 2.0 6.0 0.00 0.00 0.00 84 1014.9
20260902122404 51 147 2.0 5.0 0.00 0.00 0.00 84 1014.9
20260902121803 51 147 1.0 5.0 0.00 0.00 0.00 84 1014.8
20260902121418 51 147 1.0 5.0 0.00 0.00 0.00 84 1014.8
20260902120603 50 147 1.0 4.0 0.00 0.00 0.00 84 1014.7
20260902120004 50 147 1.0 6.0 0.00 0.00 0.00 85 1014.5
20260902115403 50 146 2.0 5.0 0.00 0.00 0.00 85 1014.6
20260902114803 50 144 3.0 6.0 0.00 0.00 0.00 85 1014.6
20260902114203 50 143 3.0 6.0 0.00 0.00 0.00 85 1014.5
20260902113603 50 142 3.0 7.0 0.00 0.00 0.00 85 1014.6
20260902113003 50 141 4.0 9.0 0.00 0.00 0.00 85 1014.4
20260902112617 50 143 4.0 9.0 0.00 0.00 0.00 85 1014.5
20260902111803 51 146 3.0 6.0 0.00 0.00 0.00 85 1014.5
20260902111203 51 146 2.0 6.0 0.00 0.00 0.00 85 1014.6
20260902110603 51 148 2.0 6.0 0.00 0.00 0.00 85 1014.6
20260902110217 51 151 2.0 6.0 0.00 0.00 0.00 85 1014.6
20260902105617 51 160 2.0 7.0 0.00 0.00 0.00 84 1014.6
20260902104803 51 161 2.0 6.0 0.00 0.00 0.00 84 1014.6
20260902104203 51 161 3.0 7.0 0.00 0.00 0.00 84 1014.6
20260902103603 51 160 3.0 7.0 0.00 0.00 0.00 84 1014.6
20260902103003 51 158 3.0 7.0 0.00 0.00 0.00 84 1014.7
20260902102403 51 156 2.0 6.0 0.00 0.00 0.00 83 1014.7
20260902101803 51 154 3.0 6.0 0.00 0.00 0.00 83 1014.7
20260902101203 51 152 3.0 7.0 0.00 0.00 0.00 83 1014.7
20260902100603 51 156 3.0 7.0 0.00 0.00 0.00 83 1014.7
20260902100003 51 157 2.0 6.0 0.00 0.00 0.00 82 1014.7
20260902095403 52 156 2.0 7.0 0.00 0.00 0.00 81 1014.7
20260902094803 52 154 1.0 5.0 0.00 0.00 0.00 80 1014.7
20260902094417 52 154 1.0 4.0 0.00 0.00 0.00 80 1014.8
20260902093603 52 154 0.0 4.0 0.00 0.00 0.00 79 1014.8
20260902093003 52 154 1.0 4.0 0.00 0.00 0.00 79 1014.8
20260902092404 52 154 1.0 5.0 0.00 0.00 0.00 79 1014.7
20260902091803 52 156 2.0 7.0 0.00 0.00 0.00 79 1014.7
20260902091203 52 157 3.0 9.0 0.00 0.00 0.00 79 1014.6
20260902090603 52 158 3.0 9.0 0.00 0.00 0.00 79 1014.4
20260902090004 53 152 4.0 12.0 0.00 0.00 0.00 79 1014.6
20260902085403 53 152 5.0 12.0 0.00 0.00 0.00 79 1014.6
20260902084803 53 159 4.0 12.0 0.00 0.00 0.00 79 1014.6
20260902084203 53 161 3.0 12.0 0.00 0.00 0.00 79 1014.6
20260902083603 53 156 3.0 13.0 0.00 0.00 0.00 79 1014.7
20260902083003 53 151 5.0 12.0 0.00 0.00 0.00 79 1014.5
20260902082618 53 150 5.0 13.0 0.00 0.00 0.00 79 1014.5
20260902081803 53 153 4.0 12.0 0.00 0.00 0.00 79 1014.5
20260902081203 52 146 4.0 12.0 0.00 0.00 0.00 79 1014.6
20260902080603 52 144 5.0 12.0 0.00 0.00 0.00 79 1014.4
20260902080218 52 150 5.0 13.0 0.00 0.00 0.00 79 1014.5
20260902075403 52 152 6.0 14.0 0.00 0.00 0.00 79 1014.8
20260902074804 52 151 6.0 12.0 0.00 0.00 0.00 79 1014.7
20260902074417 52 147 5.0 12.0 0.00 0.00 0.00 79 1014.6
20260902073603 52 142 4.0 12.0 0.00 0.00 0.00 79 1014.6
20260902073003 52 144 4.0 13.0 0.00 0.00 0.00 79 1014.7
20260902072617 52 143 5.0 13.0 0.00 0.00 0.00 79 1014.5
20260902072017 53 142 5.0 13.0 0.00 0.00 0.00 79 1014.3
20260902071203 53 147 5.0 10.0 0.00 0.00 0.00 78 1014.4
20260902070603 53 155 5.0 7.0 0.00 0.00 0.00 78 1014.6
20260902070005 53 158 4.0 9.0 0.00 0.00 0.00 78 1015.0
20260902065403 53 157 3.0 7.0 0.00 0.00 0.00 77 1015.0
20260902064803 54 161 3.0 7.0 0.00 0.00 0.00 77 1014.8
20260902064418 54 162 3.0 7.0 0.00 0.00 0.00 77 1014.9
20260902063603 54 163 2.0 5.0 0.00 0.00 0.00 77 1015.0
20260902063003 54 163 1.0 5.0 0.00 0.00 0.00 77 1015.0
20260902062403 54 165 2.0 7.0 0.00 0.00 0.00 77 1015.0
20260902061804 54 167 2.0 7.0 0.00 0.00 0.00 77 1014.9
20260902061418 53 169 2.0 7.0 0.00 0.00 0.00 77 1015.1
20260902060603 53 170 2.0 7.0 0.00 0.00 0.00 76 1015.1
20260902060003 53 168 2.0 7.0 0.00 0.00 0.00 76 1015.3
20260902055403 53 155 2.0 12.0 0.00 0.00 0.00 76 1015.4
20260902054803 53 142 2.0 9.0 0.00 0.00 0.00 76 1015.3
20260902054203 53 137 2.0 10.0 0.00 0.00 0.00 76 1015.4
20260902053603 53 141 3.0 10.0 0.00 0.00 0.00 76 1015.4
20260902053003 53 141 3.0 9.0 0.00 0.00 0.00 76 1015.4
20260902052403 53 142 3.0 9.0 0.00 0.00 0.00 76 1015.4
20260902051803 53 155 3.0 6.0 0.00 0.00 0.00 76 1015.6
20260902051203 54 162 2.0 5.0 0.00 0.00 0.00 75 1015.7
20260902050603 54 170 2.0 8.0 0.00 0.00 0.00 75 1015.7
20260902050005 54 181 1.0 6.0 0.00 0.00 0.00 74 1016.2
20260902045403 54 204 1.0 5.0 0.00 0.00 0.00 73 1016.0
20260902044803 54 215 1.0 5.0 0.00 0.00 0.00 73 1015.9
20260902044417 55 236 0.0 3.0 0.00 0.00 0.00 72 1015.9
20260902043817 55 236 0.0 2.0 0.00 0.00 0.00 72 1016.0
20260902043217 55 236 1.0 3.0 0.00 0.00 0.00 71 1015.9
20260902042618 55 236 0.0 3.0 0.00 0.00 0.00 71 1015.8
20260902041803 56 236 0.0 2.0 0.00 0.00 0.00 70 1015.5
20260902041203 56 236 0.0 1.0 0.00 0.00 0.00 69 1015.4
20260902040603 57 235 0.0 2.0 0.00 0.00 0.00 69 1015.2
20260902040003 57 212 1.0 9.0 0.00 0.00 0.00 67 1015.0
20260902035403 57 213 1.0 12.0 0.00 0.00 0.00 67 1015.0
20260902034803 57 244 1.0 5.0 0.00 0.00 0.00 66 1014.9
20260902034203 58 236 1.0 5.0 0.00 0.00 0.00 66 1014.9
20260902033817 58 236 2.0 7.0 0.00 0.00 0.00 66 1014.8
20260902033218 58 231 3.0 12.0 0.00 0.00 0.00 65 1014.6
20260902032403 58 228 1.0 12.0 0.00 0.00 0.00 64 1014.5
20260902031803 58 230 1.0 6.0 0.00 0.00 0.00 63 1014.4
20260902031204 58 232 2.0 7.0 0.00 0.00 0.00 62 1014.3
20260902030603 59 236 2.0 7.0 0.00 0.00 0.00 62 1014.0
20260902030003 59 230 1.0 6.0 0.00 0.00 0.00 61 1014.1
20260902025617 59 224 1.0 6.0 0.00 0.00 0.00 61 1014.1
20260902024803 59 219 1.0 5.0 0.00 0.00 0.00 60 1014.0
20260902024417 60 218 2.0 6.0 0.00 0.00 0.00 60 1013.7
20260902023604 60 216 2.0 7.0 0.00 0.00 0.00 59 1013.7
20260902023003 60 219 1.0 7.0 0.00 0.00 0.00 58 1013.7
20260902022403 61 230 1.0 7.0 0.00 0.00 0.00 58 1013.7
20260902021803 61 235 2.0 13.0 0.00 0.00 0.00 57 1013.6
20260902021203 62 227 3.0 13.0 0.00 0.00 0.00 57 1013.4
20260902020604 62 219 2.0 9.0 0.00 0.00 0.00 55 1013.4
20260902020003 62 221 2.0 7.0 0.00 0.00 0.00 56 1013.5
20260902015403 62 231 2.0 6.0 0.00 0.00 0.00 55 1013.2
20260902014803 63 241 1.0 5.0 0.00 0.00 0.00 55 1013.3
20260902014203 63 235 1.0 7.0 0.00 0.00 0.00 54 1013.2
20260902013604 63 229 3.0 13.0 0.00 0.00 0.00 54 1013.4
20260902013003 63 223 3.0 13.0 0.00 0.00 0.00 53 1013.4
20260902012403 63 206 2.0 13.0 0.00 0.00 0.00 53 1013.4
20260902011803 64 231 4.0 13.0 0.00 0.00 0.00 53 1013.4
20260902011203 64 227 4.0 10.0 0.00 0.00 0.00 52 1013.3
20260902010603 64 235 3.0 13.0 0.00 0.00 0.00 53 1013.4
20260902010003 64 202 3.0 14.0 0.00 0.00 0.00 53 1013.3
20260902005403 64 206 5.0 14.0 0.00 0.00 0.00 52 1013.2
20260902005019 64 228 5.0 14.0 0.00 0.00 0.00 51 1013.2
20260902004418 64 242 4.0 13.0 0.00 0.00 0.00 52 1013.2
20260902003603 64 241 5.0 15.0 0.00 0.00 0.00 52 1013.2
20260902003003 65 236 3.0 15.0 0.00 0.00 0.00 53 1013.2
20260902002403 65 218 3.0 10.0 0.00 0.00 0.00 52 1013.2
20260902001803 65 212 4.0 12.0 0.00 0.00 0.00 51 1013.2
20260902001203 65 224 4.0 10.0 0.00 0.00 0.00 51 1013.2
20260902000603 65 223 3.0 10.0 0.00 0.00 0.00 52 1013.2
20260902000218 65 219 4.0 15.0 0.00 0.00 0.00 52 1013.2
20260901235404 65 220 7.0 16.0 0.00 0.00 0.00 50 1013.0
20260901234803 65 210 5.0 13.0 0.00 0.00 0.00 51 1013.0
20260901234203 65 186 6.0 16.0 0.00 0.00 0.00 50 1013.0
20260901233603 65 200 7.0 16.0 0.00 0.00 0.00 50 1012.9
20260901233003 65 239 5.0 14.0 0.00 0.00 0.00 50 1013.0
20260901232403 65 200 5.0 15.0 0.00 0.00 0.00 50 1013.2
20260901231803 65 201 5.0 15.0 0.00 0.00 0.00 50 1013.1
20260901231203 65 198 8.0 16.0 0.00 0.00 0.00 49 1013.2
20260901230603 66 198 6.0 16.0 0.00 0.00 0.00 48 1013.2
20260901230219 66 193 5.0 14.0 0.00 0.00 0.00 50 1013.3
20260901225404 65 198 6.0 15.0 0.00 0.00 0.00 49 1012.9
20260901224803 65 211 6.0 15.0 0.00 0.00 0.00 49 1012.9
20260901224417 65 222 7.0 15.0 0.00 0.00 0.00 50 1013.0
20260901223603 65 217 4.0 14.0 0.00 0.00 0.00 52 1013.0
20260901223003 65 199 6.0 16.0 0.00 0.00 0.00 51 1013.0
20260901222403 65 194 6.0 16.0 0.00 0.00 0.00 53 1013.0
20260901221804 65 200 5.0 12.0 0.00 0.00 0.00 50 1013.0
20260901221203 65 234 6.0 17.0 0.00 0.00 0.00 53 1013.0
20260901220604 65 219 8.0 18.0 0.00 0.00 0.00 53 1013.2
20260901220004 65 212 7.0 18.0 0.00 0.00 0.00 51 1013.3
20260901215618 65 193 7.0 15.0 0.00 0.00 0.00 53 1013.3